Shawbury, United Kingdom

12:25 AM BST on April 25, 2017 (GMT +0100)
Shawbury Air Base

Weather History for EGOS - September, 2013

Change the Weather History Date:

Tuesday, September 3, 2013

  Actual Average Record
Temperature  
Mean Temperature 62 °F -  
Max Temperature 73 °F 60 °F 75 °F (1999)
Min Temperature 50 °F 47 °F 44 °F (2000)
Degree Days  
Heating Degree Days 4    
Growing Degree Days 12 (Base 50)    
Moisture  
Dew Point 56 °F    
Average Humidity 80    
Maximum Humidity 100    
Minimum Humidity 44    
Precipitation  
Precipitation 0.00 in - - ()
Sea Level Pressure  
Sea Level Pressure 30.31 in    
Wind  
Wind Speed 4 mph ()    
Max Wind Speed 9 mph    
Max Gust Speed -    
Visibility 7.1 miles    
Events Fog    
Averages and records for this station are not official NWS values.
T = Trace of Precipitation, MM = Missing Value Source: Averaged Metar Reports

Daily Weather History Graph

Daily Weather History Graph

Search for Another Location

Airport or City:

Trip Planner

Search our weather history database for the weather conditions in past years. The results will help you decide how hot, cold, wet, or windy it might be!

Date:

Astronomy

Sep. 03, 2013 Rise Set
Actual Time 6:24 AM BST 7:54 PM BST
Civil Twilight 5:48 AM BST 8:29 PM BST
Nautical Twilight 5:04 AM BST 9:13 PM BST
Astronomical Twilight 4:15 AM BST 10:02 PM BST
Moon 4:15 AM BST (9/3) 6:37 PM BST (9/3)
Length of Visible Light 14h 41m
Length of Day
13h 29m
Waning Crescent, 4% of the Moon is Illuminated
Sep 3
Waning Crescent
Sep 5
New
Sep 12
First Quarter
Sep 19
Full
Sep 27
Last Quarter

Hourly Weather History & Observations

Time (BST) Temp. Dew Point Humidity Pressure Visibility Wind Dir Wind Speed Gust Speed Precip Events Conditions
12:50 AM 58 °F 56 °F 90% 30.36 in 11 mi South 4.6 mph - -  
12:50 AM 57.2 °F 55.4 °F 94% 30.33 in 6.2 mi South 4.6 mph - N/A   Unknown
1:50 AM 55.4 °F 55.4 °F 100% 30.33 in 6.2 mi WSW 5.8 mph - N/A   Unknown
2:50 AM 55.4 °F 53.6 °F 94% 30.33 in 6.2 mi SSW 5.8 mph - N/A   Unknown
3:50 AM 55 °F 54 °F 97% 30.34 in 3 mi South 2.3 mph - - Fog Fog
3:50 AM 55.4 °F 53.6 °F 94% 30.33 in 3.1 mi South 2.3 mph - N/A   Unknown
4:50 AM 51.8 °F 50.0 °F 94% 30.33 in 0.1 mi South 1.2 mph - N/A Fog Fog
5:50 AM 57.2 °F 57.2 °F 100% 30.33 in 6.2 mi South 2.3 mph - N/A   Mostly Cloudy
6:50 AM 55 °F 54 °F 98% 30.35 in 2 mi ESE 1.2 mph - - Fog Light Fog
6:50 AM 55.4 °F 55.4 °F 100% 30.33 in 6.2 mi ESE 1.2 mph - N/A Fog Scattered Clouds
7:50 AM 57.2 °F 57.2 °F 100% 30.36 in 6.2 mi East 1.2 mph - N/A   Scattered Clouds
8:50 AM 60.8 °F 59.0 °F 94% 30.33 in 6.2 mi South 2.3 mph - N/A   Mostly Cloudy
9:50 AM 62 °F 59 °F 86% 30.36 in 11 mi SSW 3.5 mph - -   Mostly Cloudy
9:50 AM 62.6 °F 59.0 °F 88% 30.36 in 6.2 mi SSW 3.5 mph - N/A   Mostly Cloudy
10:50 AM 64.4 °F 59.0 °F 83% 30.33 in 6.2 mi South 3.5 mph - N/A   Mostly Cloudy
11:50 AM 66.2 °F 59.0 °F 78% 30.33 in 6.2 mi South 4.6 mph - N/A   Mostly Cloudy
12:50 PM 67 °F 59 °F 67% 30.35 in 19 mi South 5.8 mph - -   Mostly Cloudy
12:50 PM 68.0 °F 59.0 °F 73% 30.33 in 6.2 mi South 5.8 mph - N/A   Mostly Cloudy
1:50 PM 68.0 °F 59.0 °F 73% 30.33 in 6.2 mi South 5.8 mph - N/A   Mostly Cloudy
2:50 PM 71.6 °F 57.2 °F 60% 30.30 in 6.2 mi SE 6.9 mph - N/A   Scattered Clouds
3:50 PM 73 °F 57 °F 47% 30.29 in 22 mi SE 5.8 mph - -   Partly Cloudy
3:50 PM 73.4 °F 57.2 °F 57% 30.27 in 6.2 mi SE 5.8 mph - N/A   Scattered Clouds
4:50 PM 73.4 °F 55.4 °F 53% 30.27 in 6.2 mi South 6.9 mph - N/A   Partly Cloudy
5:50 PM 73.4 °F 57.2 °F 57% 30.24 in 6.2 mi SE 5.8 mph - N/A   Partly Cloudy
6:50 PM 72 °F 55 °F 44% 30.25 in 19 mi South 9.2 mph - -   Scattered Clouds
6:50 PM 71.6 °F 55.4 °F 57% 30.24 in 6.2 mi South 9.2 mph - N/A   Partly Cloudy
7:50 PM 68.0 °F 55.4 °F 64% 30.24 in 6.2 mi SSE 6.9 mph - N/A   Unknown
8:50 PM 64.4 °F 55.4 °F 73% 30.24 in 6.2 mi WSW 3.5 mph - N/A   Partly Cloudy
9:50 PM 61 °F 55 °F 75% 30.27 in 16 mi WSW 4.6 mph - -   Scattered Clouds
9:50 PM 60.8 °F 55.4 °F 82% 30.24 in 6.2 mi WSW 4.6 mph - N/A   Partly Cloudy
10:50 PM 59.0 °F 57.2 °F 94% 30.24 in 6.2 mi WSW 4.6 mph - N/A   Partly Cloudy
11:50 PM 59.0 °F 57.2 °F 94% 30.24 in 6.2 mi West 3.5 mph - N/A   Unknown